Regional Weather Roundup
Issued by NWS

Home | Current Version | Previous Version | Graphics & Text | Print | Product List | Glossary On
Versions: 1 2 3 4 5 6 7 8 9 10 11 12 13 14 15 16 17 18 19 20 21 22 23 24 25 26 27 28 29 30 31 32 33 34 35 36 37 38 39 40 41 42 43 44 45 46 47 48 49 50
812
ASUS43 KIND 130859
RWRIN

WEATHER ROUNDUP FOR INDIANA
NATIONAL WEATHER SERVICE INDIANAPOLIS IN
400 AM EST SAT FEB 13 2016

NOTE: "FAIR" INDICATES FEW OR NO CLOUDS BELOW 12,000 FEET WITH NO
SIGNIFICANT WEATHER AND/OR OBSTRUCTIONS TO VISIBILITY.

* - STATION DOES NOT REPORT WEATHER SUCH AS PRECIPITATION OR FOG.

+ - STATION NOT QUALITY CONTROLLED BY THE NATIONAL WEATHER SERVICE.
    USE DATA WITH CAUTION...ESPECIALLY DEWPOINT AND RELATIVE
    HUMIDITY OBSERVATIONS.

INZ001>003-010>013-019-020-131000-
NORTHWEST INDIANA

CITY           SKY/WX    TMP DP  RH WIND       PRES   REMARKS
RENSSELAER +   PTCLDY     9  -9  43 NW14      30.50R WCI  -8

$$

LMZ046-743>745-131000-
SOUTHERN LAKE MICHIGAN

STATION/POSITION TIME  TEMP    WIND        PRES    WAVE
                       AIR SEA DIR/SP/G            HT
                 (UTC) (F)     (DEG/KT/KT) (MB)    (FT)
BURNS HARBOR     0806   12     310/ 19     1031.8R
MICHIGAN CITY    0800   12     320/ 24/ 26   N/A

$$

INZ004-005-014>016-021>024-131000-
NORTH CENTRAL INDIANA

CITY           SKY/WX    TMP DP  RH WIND       PRES   REMARKS
GOSHEN         CLOUDY     4  -2  76 NW5       30.41R WCI  -5
SOUTH BEND     LGT SNOW   7   4  87 CALM      30.43R VSB 1

$$

INZ006>009-017-018-025>027-131000-
NORTHEAST INDIANA

CITY           SKY/WX    TMP DP  RH WIND       PRES   REMARKS
ANGOLA *+      CLEAR      1  -8  66 W3        30.35R
FORT WAYNE     PTCLDY     7  -5  57 N13       30.41R WCI  -9

$$

INZ028-029-035-036-043>045-051>053-131000-
WEST CENTRAL INDIANA

CITY           SKY/WX    TMP DP  RH WIND       PRES   REMARKS
CRAWFORDSVL +  PTCLDY     7  -9  49 NW8       30.47R WCI  -6
GREENCASTLE +  PTCLDY    10 -13  34 NW7       30.47R WCI   0
LAFAYETTE      PTCLDY     7  -4  60 NW15      30.49R WCI -10
TERRE HAUTE    PTCLDY    12   1  61 N8        30.51R WCI   0

$$

INZ030>032-037>040-046>048-054>057-064-065-131000-
CENTRAL INDIANA

CITY           SKY/WX    TMP DP  RH WIND       PRES   REMARKS
GREENWOOD *+   PTCLDY    12   1  62 NW9       30.44R WCI   0
INDIANAPOLIS   CLEAR     11  -2  56 NW13      30.44R WCI  -4
-EAGLE CREEK   CLEAR     11  -1  58 NW13      30.44R WCI  -4
KOKOMO *+      CLEAR      9   0  66 NW14G24   30.42R WCI  -8
MT COMFORT *+  PTCLDY    10   0  61 NW13      30.42R WCI  -5
SHELBYVILLE    CLEAR     13   1  59 NW13      30.42R WCI  -2

$$

INZ033-034-041-042-049-050-058-059-131000-
EAST CENTRAL INDIANA

CITY           SKY/WX    TMP DP  RH WIND       PRES   REMARKS
MUNCIE         FLURRIES  12   4  70 NW12G20   30.39R WCI  -2

$$

INZ060-061-067>069-081>083-085>088-131000-
SOUTHWEST INDIANA

CITY           SKY/WX    TMP DP  RH WIND       PRES   REMARKS
EVANSVILLE     PTCLDY    18   5  57 N10       30.53R WCI   6
HUNTINGBURG *+ PTCLDY    16   5  62 N13G21    30.50R WCI   2

$$

INZ062-063-066-070>080-084-089>092-131000-
SOUTH CENTRAL AND SOUTHEAST INDIANA

CITY           SKY/WX    TMP DP  RH WIND       PRES   REMARKS
BLOOMINGTON    PTCLDY    13   0  56 N8        30.46R WCI   2
MADISON *+     CLEAR     18   0  45 NW6       30.43R WCI   9
SEYMOUR +      PTCLDY    18   1  49 NW13      30.46R WCI   4

$$





USA.gov is the U.S. government's official web portal to all federal, state and local government web resources and services.